Theta_e
301 303 302 303 304 304 302 301 301 301 301 301 302 302 303 304 305 306 307 307 308 309 310 310 311 311 311 311 310 311 311 311 311 312 316 327 338 346 349 350 350 350 349 346 344 344 343 343 343 342 341 341 340 341 341 342 341 341 341 341 341 340 340 340 339 339 338 338 339 338 339 339 339 338 338 338 337 335 335 334 335 335 336 338 338 338
302 303 303 303 303 303 302 301 301 301 301 301 302 302 303 303 304 305 306 307 307 309 311 311 310 310 310 311 311 310 311 311 311 311 314 326 338 346 349 349 349 349 348 347 345 343 342 343 342 342 341 341 340 340 341 342 341 341 341 340 340 340 340 340 340 339 339 339 339 339 339 340 339 339 338 338 336 334 334 334 335 336 337 338 339 339
303 302 303 302 302 301 301 301 301 301 301 302 302 302 303 303 304 306 307 307 307 309 312 312 311 311 309 310 311 311 311 311 311 312 312 321 336 344 347 349 349 348 348 348 346 343 341 341 342 341 341 340 340 340 340 341 341 341 341 341 340 340 340 340 340 339 339 339 339 339 339 339 340 339 338 337 335 335 335 335 336 337 338 339 339 340
303 303 303 303 302 301 301 301 301 301 302 302 302 302 303 303 304 306 307 308 307 308 310 310 310 310 310 310 310 310 311 311 312 312 312 317 331 343 346 347 348 347 347 347 346 345 342 340 340 340 340 340 340 340 340 341 341 341 341 341 340 341 341 340 340 340 339 339 339 339 340 340 340 339 337 337 336 337 338 338 338 338 339 340 340 341
303 303 303 303 302 302 303 302 302 302 302 302 302 302 302 303 303 305 306 307 306 307 309 310 311 312 312 311 310 311 311 311 311 313 312 314 325 339 345 345 347 346 346 347 346 344 343 342 340 340 340 340 339 339 340 340 341 341 341 341 341 341 341 341 341 341 340 341 340 340 341 340 340 339 339 339 339 339 340 340 340 339 340 341 341 342
301 303 303 303 303 302 302 303 302 302 303 302 302 301 302 302 303 304 305 307 308 310 311 311 311 315 318 314 311 312 313 312 311 312 313 312 317 331 342 344 345 346 345 345 345 344 343 342 340 340 339 340 340 339 340 340 341 341 341 341 341 341 341 341 342 342 342 341 341 341 341 341 341 341 340 340 340 340 340 340 341 340 341 341 342 342
303 303 303 303 303 302 302 303 302 302 302 303 302 302 302 302 302 303 304 307 309 311 312 309 309 316 321 316 311 312 313 312 311 312 314 313 312 321 335 343 344 345 345 345 345 344 343 343 341 340 339 339 340 340 340 340 341 341 341 341 341 341 341 341 342 342 342 342 342 341 341 341 341 341 340 340 340 341 340 341 341 342 342 342 342 342
305 305 304 304 304 303 303 303 302 302 302 303 302 302 302 302 302 303 304 307 309 310 309 308 309 313 316 315 313 313 313 313 312 312 313 314 311 315 328 339 344 344 344 344 345 344 343 343 342 340 340 340 340 340 340 340 340 341 341 342 341 341 341 341 342 342 342 342 342 342 341 342 341 341 341 340 341 341 341 341 342 342 343 342 342 341
305 305 305 304 304 304 304 304 303 302 301 302 302 302 302 302 303 303 305 308 308 309 310 309 309 312 316 321 318 313 312 312 312 312 313 314 312 312 321 334 342 344 343 344 344 345 344 342 341 340 340 340 340 340 340 340 341 341 341 342 341 341 341 341 342 342 342 342 342 342 342 342 342 341 341 341 341 341 342 341 341 342 342 342 341 339
305 305 306 305 303 303 303 303 303 301 301 302 302 302 302 302 304 306 309 309 309 310 310 309 309 311 317 323 317 312 313 312 312 312 312 314 313 312 316 328 339 343 343 343 343 344 344 342 341 341 340 340 340 340 340 340 340 341 341 341 341 341 341 341 342 342 342 342 342 342 342 342 342 341 341 341 341 342 341 341 341 341 341 341 340 338
305 305 306 306 303 302 302 302 302 301 302 302 301 302 302 302 307 312 313 310 311 312 310 308 309 309 314 321 317 314 316 314 313 314 313 314 315 313 316 325 336 343 343 343 343 344 343 341 341 341 341 340 340 340 339 340 340 341 341 341 341 341 341 342 342 342 342 342 342 342 342 342 342 342 341 341 341 341 341 340 340 339 340 340 339 337
304 304 304 305 304 302 303 303 303 302 301 301 302 302 303 307 312 314 313 312 312 313 312 309 310 308 312 322 325 320 319 317 315 315 314 315 315 314 317 324 333 341 343 343 344 344 343 342 342 341 340 340 340 340 340 339 340 341 341 341 341 341 341 342 342 342 342 342 342 342 342 342 342 342 342 341 341 341 340 340 339 339 338 338 338 338
304 304 303 304 305 304 304 304 303 302 301 301 302 302 305 311 314 312 313 314 313 313 313 311 310 309 311 316 319 317 316 318 317 314 313 314 315 315 317 322 331 339 343 343 343 344 343 343 343 341 340 340 340 340 340 340 340 341 341 341 341 341 341 342 342 342 342 342 342 342 342 342 342 342 341 341 341 341 341 341 340 339 339 339 339 339
306 305 302 302 304 304 303 304 303 303 302 301 301 303 307 312 313 311 313 315 312 311 313 311 309 312 314 315 315 314 314 316 316 315 313 312 314 315 316 321 329 337 341 342 343 343 343 343 343 341 340 340 340 340 340 340 340 341 341 341 341 341 341 341 342 342 342 342 342 341 341 341 341 341 341 341 341 341 341 341 341 340 340 340 340 340
307 307 304 302 303 304 304 303 303 304 303 301 301 305 310 313 313 313 314 315 314 314 312 310 311 315 316 319 322 317 315 317 317 316 314 313 313 313 315 319 325 333 338 341 343 343 343 343 342 341 341 341 341 340 340 340 341 341 341 341 341 341 341 341 342 342 342 342 342 341 341 341 341 341 341 341 341 341 341 341 341 341 341 340 340 340
305 305 304 303 303 303 303 303 302 303 302 301 303 308 311 313 316 316 315 315 317 317 313 311 317 321 318 320 323 315 314 318 319 317 315 314 314 311 312 315 320 328 334 338 342 343 343 343 341 340 341 341 341 341 340 340 341 341 341 341 341 341 341 341 341 342 341 342 341 341 340 340 340 340 341 341 340 341 341 341 341 341 340 340 340 340
304 305 305 304 304 304 304 304 302 301 304 306 307 309 311 313 316 316 315 316 316 316 317 315 317 319 316 320 324 315 311 317 318 318 318 316 315 314 312 313 315 324 332 337 340 342 343 342 341 341 341 342 342 341 340 340 341 341 341 341 341 341 341 341 341 341 341 341 341 341 340 340 340 340 340 341 340 341 341 340 341 340 340 340 340 340
304 306 305 305 307 307 307 307 304 302 306 310 309 308 310 313 313 313 315 317 317 316 320 319 317 317 314 320 330 321 314 318 316 316 319 317 316 316 315 313 314 322 330 336 339 340 341 342 342 341 341 342 342 341 341 341 341 341 341 341 341 341 341 341 341 341 341 341 340 340 340 340 340 340 340 340 340 341 341 340 340 340 340 340 340 340
304 307 308 307 308 309 308 307 306 305 305 309 311 308 312 316 313 312 315 319 320 318 318 316 316 318 316 319 333 332 329 330 326 320 317 316 317 318 317 315 315 322 330 335 338 340 341 342 342 341 341 342 342 342 341 341 341 341 341 341 341 341 341 341 341 341 341 341 340 340 340 340 340 340 340 340 340 340 340 340 340 340 340 340 340 340
305 307 311 310 308 308 309 309 310 309 305 307 310 308 314 321 317 313 315 318 319 318 317 315 314 321 323 322 328 333 332 333 332 329 322 315 316 319 318 317 317 321 329 334 338 340 341 342 341 341 341 342 342 342 342 341 341 341 341 341 341 341 341 341 341 341 341 341 341 340 340 340 340 340 340 340 340 340 340 340 340 340 340 340 340 338
307 307 310 311 309 308 309 310 312 311 308 310 313 311 315 319 317 315 315 316 316 317 320 318 316 325 329 325 327 332 334 331 331 332 327 319 314 315 316 317 318 321 328 335 338 340 341 342 341 340 341 342 342 342 342 341 341 341 341 341 341 341 341 341 341 341 341 341 341 340 340 340 340 340 340 340 340 340 340 340 340 340 340 340 339 337
309 308 310 311 311 312 310 309 312 311 311 314 315 315 316 317 316 317 318 317 315 315 320 319 318 326 328 325 330 333 333 332 331 332 329 321 315 313 314 315 318 322 329 335 339 339 341 342 341 341 341 341 342 342 342 341 341 341 341 341 341 341 341 341 341 341 341 341 340 340 340 340 340 340 340 340 340 340 340 340 340 340 340 340 339 339
310 310 311 310 310 311 309 309 310 309 311 315 315 315 318 318 318 318 318 317 315 316 320 318 319 326 327 326 332 334 332 333 332 331 330 325 317 313 313 315 317 322 329 335 339 340 341 342 341 340 340 341 342 342 342 342 341 341 341 341 341 341 341 341 341 341 341 340 340 340 340 340 340 340 340 340 340 340 340 340 340 340 340 339 339 339
311 311 311 313 311 309 309 312 312 310 313 317 317 315 316 317 318 317 317 315 315 320 323 319 319 326 327 325 329 333 333 334 333 331 332 330 321 314 312 314 318 324 331 337 339 340 341 342 341 341 341 341 341 342 342 342 342 341 341 341 341 341 341 340 341 340 340 340 340 340 340 340 340 340 340 339 340 340 340 340 340 340 340 339 338 338
310 311 312 313 312 310 310 313 314 314 317 319 318 316 314 316 317 317 318 316 316 321 321 319 324 329 328 326 328 332 334 334 334 332 332 332 327 318 311 314 321 327 335 339 340 342 342 342 342 342 342 341 341 342 342 342 342 341 341 341 340 341 340 340 340 340 340 340 339 339 339 340 340 340 339 340 340 340 340 340 340 340 340 339 339 338
311 311 312 313 314 314 312 313 315 315 317 317 317 315 314 316 316 317 318 317 318 322 322 325 332 332 328 328 330 332 334 335 334 333 333 332 331 322 312 315 326 333 338 341 341 342 343 342 343 342 342 341 341 342 342 342 342 341 341 341 340 340 340 340 340 339 339 339 339 339 339 339 340 340 339 340 340 340 340 340 340 340 339 339 338 336
311 310 312 313 316 315 313 314 315 314 317 318 317 316 316 317 317 315 315 317 320 323 326 331 333 331 330 330 331 332 334 335 335 335 335 332 334 329 318 321 333 336 338 342 341 342 343 342 343 343 342 341 341 342 342 342 342 342 341 341 340 340 340 339 339 339 339 339 339 339 339 339 340 340 340 340 340 340 340 340 340 339 339 339 337 335
312 311 312 313 315 314 313 314 312 314 319 319 316 318 316 317 319 316 314 319 320 322 329 333 329 329 331 330 331 333 334 335 336 336 335 332 333 331 325 330 338 337 339 341 341 342 343 342 343 342 342 341 340 342 342 342 342 342 341 341 340 340 339 339 339 339 338 339 338 339 339 339 340 340 340 340 340 340 340 339 339 338 338 339 336 334
313 313 311 312 315 315 314 314 312 313 318 318 318 320 318 319 321 317 317 321 318 320 329 329 325 328 332 329 330 332 332 334 335 334 333 332 331 330 330 336 341 340 341 342 341 342 342 342 343 342 342 341 340 342 342 342 342 342 341 341 340 340 339 339 339 338 338 338 338 338 339 339 339 339 339 340 339 339 339 338 338 337 338 338 336 334
314 315 313 313 317 317 315 315 313 315 318 317 317 318 319 323 323 318 321 323 321 322 327 325 326 331 330 328 329 330 330 332 332 331 332 332 331 332 334 338 340 341 342 342 341 342 341 341 342 341 342 342 341 342 342 342 342 341 341 341 340 340 339 339 339 338 338 338 338 339 339 339 339 339 339 339 339 338 339 338 338 337 337 338 336 333
313 315 314 313 315 316 316 317 317 318 318 317 318 320 322 327 326 322 325 326 324 325 326 326 331 333 330 328 329 329 329 330 331 331 332 333 333 334 336 338 339 340 342 342 342 342 341 342 342 341 342 342 341 342 342 342 342 341 341 341 341 340 339 339 339 339 339 339 338 339 340 339 340 339 339 339 338 338 338 338 337 336 336 337 335 332
312 313 312 313 317 316 316 318 319 317 315 317 322 324 323 327 326 325 327 327 327 328 328 330 333 333 330 330 329 329 329 330 331 331 331 332 333 335 336 338 339 341 343 343 343 342 342 342 341 341 341 340 340 341 341 342 342 341 341 341 341 340 340 340 340 339 339 339 339 340 340 340 340 339 339 339 338 338 337 337 337 336 335 335 334 332
311 314 313 313 318 318 316 318 319 317 316 317 321 321 321 323 324 325 327 328 327 328 330 333 334 332 331 331 331 331 330 330 331 330 330 332 333 334 335 336 338 341 343 343 342 342 342 341 342 341 340 339 340 341 341 341 341 341 341 341 341 340 340 340 340 339 339 340 340 340 339 339 338 338 339 339 338 338 337 337 336 335 335 335 333 333
310 314 313 311 317 322 319 317 318 319 318 317 317 318 319 321 324 327 329 327 325 327 330 331 332 331 331 331 331 332 330 329 329 328 329 330 332 334 336 335 336 338 340 341 341 341 341 341 341 339 338 339 340 341 341 341 341 341 341 341 341 340 340 340 340 340 340 340 340 340 339 339 338 338 338 338 338 338 337 336 335 335 335 334 332 333
312 315 313 310 315 319 319 320 321 319 317 316 318 318 318 320 323 326 327 324 323 326 329 331 332 332 331 330 330 329 328 327 327 328 329 329 330 333 335 335 335 336 336 337 337 338 339 339 339 336 335 338 340 340 341 341 341 341 341 340 340 340 340 340 340 340 340 340 339 339 339 339 338 338 337 336 337 336 335 335 335 334 334 333 333 333
315 317 313 311 312 313 317 323 320 315 315 318 323 323 322 323 323 324 326 324 322 325 330 331 332 331 328 328 328 326 326 329 331 330 328 328 328 330 333 334 334 334 335 335 335 335 334 334 334 333 333 336 338 339 339 339 340 340 340 341 341 341 341 341 340 340 340 339 339 339 339 338 338 337 336 336 336 335 334 334 335 334 334 333 332 332
315 316 315 314 313 312 317 321 318 317 320 323 325 324 322 323 323 322 326 325 322 325 330 330 332 331 329 328 327 326 329 335 337 333 329 327 327 328 330 331 330 331 332 332 332 332 332 333 334 334 335 337 338 338 338 339 340 340 340 340 340 340 340 340 340 340 339 339 339 339 338 338 337 336 336 335 335 334 334 334 334 334 333 332 332 332
314 315 315 316 316 315 319 321 321 324 325 324 325 322 319 323 323 319 324 328 324 325 328 329 332 332 329 329 328 329 334 337 336 332 329 327 326 326 327 328 327 328 328 328 328 328 329 332 334 335 337 337 338 339 340 340 341 340 338 337 337 337 337 337 337 337 337 338 338 338 337 337 336 335 334 334 334 334 335 334 333 333 333 332 332 331
315 315 316 319 319 317 320 323 322 323 322 322 322 320 320 323 319 317 326 330 326 325 326 327 330 331 329 330 329 331 337 336 333 332 330 327 326 326 325 326 326 326 325 325 326 326 326 328 330 332 334 334 334 336 337 338 337 336 334 333 333 334 334 334 334 335 336 337 338 338 337 336 335 334 334 333 334 334 334 333 332 332 332 331 331 330
317 318 319 322 320 315 316 320 319 320 322 320 318 318 319 319 316 319 329 331 325 325 326 326 329 330 329 330 332 334 337 335 333 332 329 326 325 325 325 325 325 325 324 324 325 326 326 327 329 329 330 331 332 333 334 334 333 333 332 332 332 333 333 334 336 336 336 337 337 336 335 334 334 333 333 333 334 334 333 332 332 332 331 331 330 330
317 317 318 320 319 315 316 318 317 320 321 319 318 319 318 317 319 323 328 327 324 325 325 325 328 329 327 329 332 335 334 331 330 329 327 325 326 325 325 324 324 324 323 323 325 326 326 327 328 327 328 329 330 331 332 333 332 332 332 332 332 333 334 336 336 336 335 336 336 335 334 334 334 333 333 334 333 333 332 332 332 331 330 330 330 329
318 318 318 318 316 313 315 317 319 322 319 316 319 320 317 319 324 326 325 324 324 324 324 325 327 327 326 327 328 330 329 328 328 327 326 326 326 326 325 325 325 325 324 324 325 326 326 326 326 327 327 328 329 330 331 331 331 331 332 332 332 333 334 335 335 335 336 335 335 334 334 334 334 334 334 333 333 332 332 332 331 330 329 329 330 329
318 318 319 318 315 314 317 319 321 322 319 317 320 323 321 322 324 324 324 324 323 323 325 326 326 326 327 326 326 326 327 327 326 326 325 326 326 326 326 326 326 326 325 325 325 325 325 325 325 325 327 328 329 329 330 330 329 330 331 332 332 333 334 335 335 336 336 335 334 334 334 334 334 334 333 333 332 332 331 330 330 329 329 329 329 328
317 318 318 316 314 317 322 321 319 319 318 318 321 324 323 321 321 322 324 325 324 323 324 326 326 325 325 325 325 324 324 325 324 324 324 326 326 326 327 326 326 326 325 325 325 325 326 325 325 325 326 328 329 329 330 330 329 329 329 330 331 332 334 334 335 335 335 335 334 334 333 333 333 333 332 332 331 330 329 329 329 329 329 329 329 328
316 316 317 316 313 316 320 319 317 318 319 319 320 321 321 320 319 320 322 323 323 322 323 325 326 325 324 324 324 324 324 323 323 322 323 324 324 325 325 325 325 325 325 325 325 325 326 325 325 325 325 326 327 328 328 329 328 327 327 327 329 332 333 334 334 334 334 334 333 332 332 332 332 332 331 331 330 329 328 328 328 328 328 328 328 327
315 314 317 318 316 316 318 318 318 319 320 320 321 320 319 319 319 319 319 320 320 320 320 322 324 324 324 324 323 324 323 322 321 321 321 321 321 322 323 323 323 323 323 323 323 324 324 324 324 324 323 324 326 327 327 328 328 327 326 327 329 331 332 333 333 332 331 332 332 332 332 331 331 331 331 330 330 329 328 328 328 326 326 326 327 327
315 315 316 318 318 317 318 317 317 318 318 319 320 320 319 318 319 318 319 319 319 319 319 320 321 322 323 323 323 323 322 321 321 321 320 320 320 320 320 321 321 321 321 321 321 322 322 322 321 321 322 322 324 325 326 327 327 327 327 327 328 329 329 330 329 327 326 327 329 329 330 330 330 330 330 329 329 329 328 327 326 325 325 325 325 325
316 316 317 317 317 318 318 316 316 317 317 316 318 319 319 318 318 318 318 317 318 319 319 318 319 321 321 321 322 322 322 322 321 321 320 320 319 319 319 319 319 319 319 319 320 320 320 320 319 319 320 320 321 323 324 324 325 326 327 327 328 328 328 327 326 325 326 326 327 327 327 328 329 329 328 327 327 327 327 326 325 325 325 325 325 325
316 317 317 316 316 316 316 315 316 318 318 316 316 317 317 317 318 317 316 316 317 319 320 320 319 319 320 320 321 322 322 321 321 320 320 319 319 319 318 318 318 318 318 318 318 318 318 318 318 318 318 318 318 320 321 322 324 325 326 327 328 328 328 327 326 326 327 328 328 327 326 326 327 327 326 324 324 324 323 323 324 324 323 323 324 325
316 316 316 316 315 316 316 315 315 317 318 316 316 316 316 316 317 317 317 316 317 318 319 321 321 320 319 319 319 320 322 320 319 319 319 318 318 317 317 317 317 317 317 317 317 317 316 316 316 316 316 316 316 317 318 319 321 324 325 326 327 328 327 326 325 324 325 326 326 326 326 325 324 325 325 324 324 323 321 321 322 323 323 323 323 324
316 316 315 315 315 316 316 315 314 315 317 317 315 315 315 315 315 316 316 317 317 316 317 319 320 321 320 318 317 318 320 319 318 317 317 317 316 315 315 315 316 316 315 316 315 315 315 315 315 315 314 314 315 315 315 317 319 321 323 325 326 327 326 326 323 321 321 322 323 323 324 324 323 323 324 324 324 323 321 319 319 320 321 322 322 322
Wind_Speed
3 3 2 4 5 7 8 8 8 7 6 7 7 6 8 7 7 7 7 9 8 5 6 7 8 10 12 13 15 16 14 10 9 9 7 8 8 7 9 10 11 12 11 10 14 19 20 20 22 23 25 26 26 27 30 31 31 32 32 32 33 33 33 33 32 31 31 31 30 28 27 27 26 26 26 27 29 29 27 26 26 27 25 24 23 22
1 4 6 7 9 10 9 8 8 6 6 6 5 6 8 7 8 8 9 12 10 5 5 6 7 10 11 13 15 14 13 14 12 10 9 8 8 7 9 12 12 11 7 8 11 14 18 20 22 23 25 27 27 28 31 32 32 32 33 34 34 34 33 33 32 31 31 30 29 27 26 25 24 25 26 26 28 29 27 26 26 26 24 24 24 23
3 5 8 9 8 8 7 6 6 6 6 6 4 5 6 7 7 8 9 11 8 4 5 7 7 8 10 12 16 15 13 13 11 11 10 10 9 9 10 11 12 10 7 9 10 10 16 20 22 23 24 27 28 28 31 32 32 32 33 34 35 34 34 34 33 31 30 29 28 26 25 25 23 24 26 26 26 26 26 25 25 25 24 23 24 23
5 6 9 10 7 5 6 5 5 5 5 4 4 5 5 6 7 6 7 8 8 4 5 8 7 6 8 9 13 15 13 11 10 10 10 10 11 11 12 12 12 12 10 11 11 10 13 17 20 22 23 25 26 27 30 31 32 34 34 35 34 34 35 34 33 32 31 30 28 27 25 25 24 23 25 25 25 26 26 25 25 25 24 23 23 23
10 7 6 7 7 7 7 5 5 4 4 4 6 6 6 8 8 7 7 8 10 7 6 7 6 5 5 8 12 9 8 11 11 10 8 8 10 11 12 13 13 13 13 13 13 12 12 14 18 22 23 25 27 28 31 33 35 35 35 35 34 35 35 34 34 33 31 29 28 26 24 24 24 22 23 24 25 26 27 26 26 25 24 24 23 22
11 6 5 5 6 7 7 6 6 6 3 4 6 9 10 10 10 9 9 6 7 6 3 3 3 6 4 9 13 4 5 10 10 10 10 8 8 9 10 11 11 12 12 12 13 14 13 13 16 20 23 25 27 30 32 35 35 34 34 35 34 35 35 34 35 34 32 29 27 26 24 23 22 20 22 25 26 27 28 27 26 25 25 24 23 22
5 5 6 7 7 7 7 6 6 7 4 3 4 8 11 12 11 12 10 4 2 4 4 2 1 5 4 8 13 6 7 11 10 10 10 8 8 9 9 9 10 11 10 10 11 12 13 13 14 17 23 27 29 31 32 33 34 34 35 35 35 35 35 35 35 34 33 30 28 28 26 24 23 22 22 24 26 27 27 27 26 26 25 24 24 22
3 6 7 8 8 7 7 6 6 8 5 3 4 7 10 12 13 14 9 4 4 5 9 7 3 4 4 7 9 7 9 9 9 11 10 8 9 9 10 10 10 12 12 11 10 11 13 13 14 18 24 30 31 31 32 33 35 36 36 36 35 34 34 35 35 35 33 31 29 28 28 27 28 27 25 24 25 25 26 26 26 25 24 24 23 22
4 5 7 6 5 5 5 6 7 8 5 5 6 9 10 10 13 12 7 5 5 4 8 7 4 4 5 6 4 6 9 10 11 12 10 8 9 9 10 10 10 11 12 13 12 13 13 13 17 23 28 30 31 31 33 35 35 35 35 35 34 34 34 35 36 35 34 33 30 30 30 29 29 28 26 24 24 24 25 25 25 24 24 24 23 23
2 4 6 5 2 4 6 8 8 8 7 6 7 9 9 9 9 8 4 3 4 4 8 8 4 3 5 5 4 4 7 10 10 9 7 8 9 9 9 9 9 9 10 12 13 13 14 17 22 26 26 26 27 30 32 32 32 33 34 35 34 34 34 35 36 35 35 33 32 32 32 30 28 26 24 23 23 25 25 25 24 24 24 24 24 24
5 2 4 5 5 6 7 7 7 9 8 5 3 4 6 7 4 1 2 0 2 4 9 9 6 4 4 5 5 5 5 6 7 6 6 7 8 9 8 8 9 8 8 10 11 11 13 17 20 21 21 22 24 26 28 29 31 32 34 35 35 34 34 35 35 35 36 34 34 34 34 32 29 26 24 23 23 24 24 24 24 24 24 24 23 23
5 4 3 5 8 9 6 6 5 6 7 4 2 2 4 3 0 2 2 1 2 4 6 8 8 6 5 5 4 4 5 5 8 9 9 9 9 9 8 8 9 8 9 9 9 10 10 10 13 15 18 21 23 25 28 30 31 32 33 34 34 33 33 34 35 36 36 35 35 35 35 33 31 28 26 25 25 25 24 24 23 23 23 23 23 23
4 7 7 6 8 9 6 4 4 4 4 4 3 3 3 2 1 1 2 2 4 5 6 5 7 5 6 7 8 8 8 5 7 9 12 13 11 10 9 9 8 7 9 9 9 9 9 10 11 13 17 21 24 27 30 31 31 32 33 34 34 33 33 33 35 36 36 35 36 36 34 33 31 29 28 27 26 25 25 25 24 24 23 23 23 23
3 4 4 3 4 8 8 5 3 3 4 5 4 3 4 3 3 4 4 2 3 6 7 5 4 3 4 5 9 12 11 8 7 8 11 14 14 12 11 10 8 8 9 9 9 10 10 11 11 12 17 21 24 27 29 30 31 32 32 34 34 33 33 33 34 36 36 36 37 36 34 33 31 30 29 27 26 25 25 25 25 25 24 25 24 25
2 4 2 3 1 4 9 9 6 4 4 5 5 4 4 3 3 4 3 2 3 4 3 3 3 3 3 4 7 10 11 9 8 7 9 11 13 13 12 11 9 9 9 8 9 10 11 13 12 13 18 22 24 27 29 30 31 32 32 33 34 33 33 34 34 35 35 36 37 35 33 32 32 31 30 27 26 25 25 25 25 25 25 25 25 25
1 4 4 3 2 5 8 8 6 3 2 3 3 4 4 3 1 1 1 4 4 2 1 2 2 4 4 6 6 5 6 7 7 7 8 9 10 11 11 11 11 10 10 9 9 10 11 12 12 15 19 22 24 27 28 30 32 32 32 33 34 34 34 34 35 35 35 36 36 34 32 32 31 30 28 27 25 24 25 25 25 25 24 24 24 24
1 4 5 4 4 5 6 4 4 4 3 2 3 4 2 3 3 2 2 5 1 3 2 1 3 5 2 5 6 2 3 6 6 6 8 9 9 10 10 10 10 10 10 10 10 11 12 12 13 16 21 22 24 26 29 32 35 35 34 34 33 33 33 35 35 35 35 35 34 34 32 31 30 29 28 26 25 25 25 25 25 24 23 23 23 23
2 3 4 2 4 3 3 2 4 6 5 1 2 5 3 6 3 2 2 4 3 4 3 0 4 3 0 3 6 7 2 5 5 4 7 8 9 10 10 10 10 11 11 12 12 12 12 13 13 17 22 25 28 31 33 36 36 35 34 33 34 33 34 35 34 35 35 35 34 33 32 30 29 28 27 27 26 25 25 25 24 24 23 22 21 21
2 2 5 2 2 4 2 2 2 6 6 4 3 6 4 2 0 1 2 2 2 4 2 1 2 3 3 3 6 8 6 8 8 7 6 6 8 9 9 10 11 12 11 11 11 10 11 12 14 17 22 26 29 31 33 33 32 30 29 30 32 32 33 33 33 34 34 33 33 33 32 31 29 28 27 26 25 25 25 25 25 24 23 21 20 20
2 0 4 2 2 3 4 2 1 4 5 5 4 4 4 1 2 3 3 2 2 2 1 0 1 1 3 4 4 6 6 7 8 8 7 7 7 7 8 9 10 10 10 10 10 11 12 13 15 20 25 27 29 29 29 28 28 27 26 27 29 29 30 32 33 33 32 32 33 32 31 30 29 28 27 26 25 25 25 25 25 24 22 21 20 20
1 1 2 4 3 1 2 0 2 3 2 4 2 2 3 1 0 3 3 1 1 2 1 2 3 2 4 2 3 6 7 6 7 7 7 8 7 7 8 8 9 9 9 10 11 11 13 13 15 20 25 26 26 25 25 25 26 25 25 27 29 30 30 32 33 33 33 33 33 32 31 30 29 28 26 26 25 25 24 25 25 23 21 20 19 19
1 1 2 3 3 0 3 2 3 4 2 2 2 2 3 2 1 2 2 1 1 1 2 3 2 4 4 1 3 5 6 7 7 7 7 8 7 8 8 8 9 10 10 11 12 12 12 12 13 17 20 21 22 22 23 23 24 24 25 27 29 30 31 32 33 33 33 33 32 31 30 29 28 27 26 25 24 23 23 24 23 22 21 20 20 22
3 2 1 2 2 3 5 3 4 7 4 1 2 2 2 1 1 1 1 2 3 2 1 3 1 4 5 2 3 4 5 6 6 7 8 7 7 8 9 9 9 10 11 12 12 12 12 12 13 16 19 21 22 23 24 24 24 25 26 27 29 30 31 32 33 33 33 32 31 29 28 27 27 26 25 24 24 22 22 23 22 21 20 18 20 24
3 2 0 2 2 3 6 6 5 5 1 1 3 1 3 2 1 1 2 3 3 2 1 3 1 4 5 3 4 5 6 5 4 6 8 7 5 6 9 9 8 9 9 10 11 10 10 10 11 12 14 16 19 21 23 24 24 24 25 27 29 30 30 31 31 31 31 30 29 27 26 26 26 25 25 23 23 21 21 21 20 20 18 17 20 23
2 1 1 2 2 4 5 5 4 2 2 1 3 2 2 3 3 2 3 1 1 3 0 3 1 4 5 4 5 5 5 4 5 6 6 6 5 5 7 8 8 8 8 9 9 9 10 11 11 11 11 14 18 21 23 24 24 25 26 28 29 29 29 30 30 30 29 28 26 25 25 25 25 24 24 22 21 21 20 20 20 19 17 18 21 21
1 0 2 3 3 2 1 1 1 1 0 0 3 3 2 4 4 3 2 3 1 4 2 3 3 5 5 5 6 6 7 8 9 9 7 6 6 5 6 6 7 7 8 10 11 11 11 12 12 12 12 14 18 21 22 24 24 25 26 27 28 29 28 28 29 28 27 26 25 24 24 24 24 24 23 22 21 20 19 19 19 18 17 20 20 17
2 0 1 3 4 4 4 4 3 1 1 1 4 3 2 3 2 1 1 1 2 2 3 2 3 4 7 9 11 12 11 10 9 10 9 8 7 6 4 6 7 7 9 11 11 12 12 12 13 14 13 14 18 21 22 24 25 25 25 26 27 28 27 27 27 26 25 25 24 24 24 24 24 23 22 21 20 19 19 18 18 17 18 20 17 13
3 1 2 4 4 3 4 5 4 2 2 2 4 2 3 2 2 2 1 4 3 2 4 5 0 2 6 10 13 13 11 9 8 9 9 7 7 6 3 7 7 7 8 9 11 12 13 12 12 13 12 13 16 19 19 21 23 24 24 24 24 25 25 25 25 24 24 23 22 22 23 23 23 22 22 21 20 19 18 17 17 16 17 18 15 12
3 1 2 4 3 4 6 7 5 3 2 3 4 3 2 1 4 3 3 5 3 2 4 5 3 2 5 8 11 12 11 9 8 8 8 7 7 3 4 8 9 9 9 9 11 12 13 13 13 13 12 12 15 17 18 19 21 21 21 21 22 22 23 23 23 22 22 21 21 21 22 22 22 21 21 20 20 19 18 17 16 15 16 16 13 10
2 0 1 1 2 4 7 7 5 5 2 1 2 3 3 2 6 5 3 4 3 3 4 4 5 4 5 5 8 10 10 7 7 9 9 9 9 5 4 8 8 9 10 10 10 11 11 12 11 11 11 11 14 17 18 19 21 22 22 22 22 22 22 23 22 21 20 20 20 21 21 21 21 20 20 20 19 19 17 16 14 13 14 14 11 7
1 1 1 1 1 1 3 3 3 5 3 0 1 3 6 3 5 4 2 3 3 3 4 5 4 4 3 4 7 9 8 8 10 12 11 9 9 7 4 5 6 8 8 8 8 8 8 8 8 10 11 11 15 19 20 20 21 22 22 22 23 23 23 24 23 21 21 20 20 21 21 20 20 20 20 20 19 18 17 15 14 14 13 12 10 7
1 1 2 2 3 1 2 3 1 3 2 0 2 6 7 3 3 3 2 3 3 3 6 6 4 4 5 6 7 8 8 11 12 11 11 9 9 8 6 4 5 6 6 7 7 7 7 8 8 9 8 8 12 15 16 17 19 20 21 22 22 23 23 24 23 22 21 20 20 21 20 20 20 20 19 19 19 18 17 16 15 15 14 11 10 8
0 0 1 2 2 1 3 4 3 3 3 0 2 3 4 2 1 2 2 3 3 2 3 4 3 4 7 7 8 9 9 10 10 9 9 9 8 8 6 5 5 6 6 7 7 7 7 7 7 7 8 9 12 13 14 15 15 15 17 19 21 22 23 22 22 22 21 21 21 21 20 20 20 19 19 20 20 18 17 17 17 17 15 13 11 8
1 0 1 1 1 1 5 5 4 5 3 2 3 1 1 2 2 1 2 2 4 3 2 3 4 5 6 7 7 8 8 7 7 7 8 8 6 6 6 6 5 5 6 7 7 7 7 7 8 10 13 15 17 18 18 18 16 15 17 19 19 21 21 21 21 22 21 21 21 21 21 22 21 20 21 21 21 19 18 18 19 18 16 15 13 10
1 0 2 2 1 1 4 4 6 2 3 4 4 3 3 4 4 3 3 2 3 4 4 5 7 8 8 7 7 7 7 6 5 7 10 10 7 5 5 5 5 6 6 7 8 8 8 8 9 10 14 18 21 23 23 23 23 23 23 22 22 22 22 22 22 22 21 21 22 22 22 22 21 21 20 20 20 20 19 20 20 18 16 15 13 11
2 2 2 1 1 0 2 4 3 2 5 5 5 4 1 0 1 1 2 2 1 4 6 7 8 9 8 7 6 6 6 5 5 7 10 12 10 8 6 4 4 5 6 7 8 8 9 11 12 13 15 19 22 22 23 24 26 27 27 27 27 27 26 25 25 24 23 24 24 24 23 23 22 21 20 20 20 21 21 21 20 18 16 15 14 13
3 2 1 1 1 2 2 2 1 2 3 4 3 2 2 2 1 2 1 1 2 4 5 5 6 8 8 7 6 5 4 4 7 8 10 13 12 10 8 6 5 4 5 6 8 12 15 18 21 22 23 25 25 25 25 26 27 28 29 29 29 27 27 27 27 26 26 26 26 26 25 24 23 22 20 20 21 22 23 22 20 18 16 16 17 15
3 1 1 1 2 2 4 2 2 4 2 3 4 4 4 4 3 2 2 2 4 5 5 5 5 6 7 7 7 6 3 8 7 7 9 12 12 10 9 8 7 5 5 5 7 11 15 20 22 23 25 26 26 28 30 30 31 31 30 28 28 28 26 25 25 24 25 26 27 27 26 25 24 22 21 21 23 24 23 21 20 19 18 18 17 14
3 1 2 3 3 2 4 3 1 2 0 3 4 7 6 2 1 1 4 4 6 7 8 6 5 5 5 6 6 4 7 7 4 5 8 10 9 7 7 7 7 7 7 8 8 9 12 16 18 20 22 23 22 24 28 30 30 28 24 23 25 26 24 22 23 25 26 27 27 26 26 25 22 21 22 23 24 23 21 20 20 19 19 17 14 12
4 3 3 3 2 2 3 1 0 1 1 1 4 8 7 3 3 4 4 3 5 7 8 7 5 6 5 5 5 6 8 3 3 3 5 7 6 6 6 6 6 5 7 9 9 10 13 15 16 16 16 18 21 23 25 26 24 21 17 16 18 20 22 24 25 26 27 26 25 25 24 23 21 21 23 24 23 21 19 19 20 20 18 14 11 12
2 2 2 2 2 2 2 1 1 2 2 2 4 8 7 3 4 4 1 4 4 6 6 6 5 5 5 5 4 5 3 1 2 2 4 5 5 5 5 6 7 7 8 10 11 12 13 13 14 12 10 12 18 22 24 25 22 18 16 15 15 17 22 26 26 25 24 23 22 23 22 21 21 22 23 23 21 19 17 18 19 17 15 13 13 15
2 2 2 2 2 2 2 1 1 1 2 3 6 8 5 1 2 1 3 3 3 5 5 5 4 4 4 5 4 4 2 2 3 3 4 4 4 4 5 6 7 9 10 11 13 14 14 14 14 14 11 8 11 15 18 19 17 16 17 16 14 15 18 21 22 23 22 21 21 22 22 23 23 22 21 21 20 18 18 18 17 15 14 16 17 17
1 1 1 1 1 2 2 2 2 0 2 4 7 6 2 2 1 3 2 1 2 4 4 3 4 4 4 5 5 4 3 3 4 4 4 4 3 4 5 6 6 7 8 10 12 15 16 15 14 15 14 11 9 8 10 11 11 13 15 15 13 14 15 18 20 22 22 22 22 22 23 23 23 22 21 21 19 19 19 19 16 15 16 19 18 16
2 1 1 0 1 2 3 2 1 2 4 4 4 2 1 1 2 2 1 1 2 3 3 2 3 5 4 4 4 4 4 4 5 5 4 4 5 5 6 7 7 7 8 10 12 15 17 16 14 16 16 14 11 9 9 10 11 11 11 12 14 16 16 17 19 20 22 22 22 22 23 23 22 21 21 20 18 19 19 18 17 17 18 19 18 17
4 2 1 1 0 1 1 1 3 4 4 3 1 1 2 3 4 3 2 1 1 2 2 2 3 4 4 4 4 5 5 5 6 7 7 6 7 7 8 9 9 10 11 13 14 16 17 17 17 18 19 17 15 13 10 10 11 10 8 8 11 14 15 16 18 19 21 23 22 21 21 21 21 21 19 17 17 18 19 19 19 19 19 18 18 18
4 4 1 2 0 1 0 3 4 3 4 4 4 4 5 5 5 5 4 3 3 3 3 3 3 3 3 4 5 6 6 7 8 8 8 8 9 9 9 10 11 13 14 15 16 17 18 19 20 19 19 18 17 16 14 11 11 11 8 7 9 10 11 14 16 17 18 21 23 23 22 21 20 18 17 17 17 18 19 20 21 20 19 18 18 17
4 5 3 2 1 1 2 6 7 5 7 7 6 6 8 8 7 5 4 3 3 3 4 5 5 5 4 5 8 8 7 8 9 9 8 10 10 10 9 9 11 14 15 15 17 20 20 19 18 17 18 19 18 18 18 15 13 12 10 8 8 7 8 10 9 8 8 10 13 16 19 21 19 17 16 17 17 17 17 18 19 19 19 18 18 17
4 4 3 3 3 1 1 5 6 5 9 11 8 6 7 8 8 8 6 4 2 4 6 6 6 6 5 5 7 9 9 9 10 9 8 9 9 8 9 10 11 14 17 19 22 23 21 19 18 18 18 18 18 20 21 18 16 14 12 10 9 8 8 9 8 8 8 8 7 9 12 16 18 17 16 15 15 15 14 15 16 17 17 17 17 18
4 4 3 3 3 1 2 6 7 5 7 11 9 7 7 6 6 9 10 9 7 6 7 7 7 6 6 7 5 8 11 9 8 9 9 9 9 9 9 10 13 16 18 20 23 24 22 21 20 21 20 18 20 23 23 21 19 16 14 13 11 10 10 10 10 10 10 9 8 8 10 13 16 18 17 15 14 13 12 11 11 13 13 13 14 15
4 5 5 3 3 3 3 5 6 3 3 6 7 8 8 7 7 9 10 9 8 7 6 6 7 8 8 8 7 7 9 8 7 9 10 8 8 9 8 10 15 17 17 19 22 24 24 23 23 24 22 21 24 27 26 25 22 18 16 14 12 11 12 12 13 13 12 11 11 11 12 12 14 17 18 16 15 14 13 10 9 9 9 9 10 12
4 5 5 3 3 2 3 4 3 1 2 4 6 7 7 6 7 8 7 6 6 7 7 5 6 8 9 9 9 8 6 6 7 9 9 8 9 11 11 12 14 15 16 18 21 22 22 23 24 25 23 22 25 27 27 28 26 22 18 16 14 12 12 13 15 16 14 12 12 12 13 14 14 15 16 15 14 14 13 12 10 8 7 6 7 8
Wind_Direction
149 180 216 192 208 212 212 207 208 223 234 250 270 278 281 281 275 277 278 279 283 288 270 252 248 246 241 242 241 244 248 238 235 245 246 242 235 208 188 186 186 194 197 179 174 177 174 173 173 174 174 174 175 177 178 180 183 184 185 188 191 193 193 193 193 193 194 196 197 200 202 204 206 208 210 213 218 221 221 218 217 219 220 221 222 224
174 208 225 213 214 216 213 210 209 223 238 248 262 269 275 276 274 276 278 280 274 257 267 269 263 254 240 239 242 237 236 239 233 231 235 232 232 216 191 188 189 193 175 151 162 166 166 169 171 172 173 174 175 177 180 182 184 185 187 189 191 191 192 193 194 194 195 197 197 198 200 201 204 207 210 213 217 219 219 218 218 220 220 222 224 226
259 238 232 224 218 220 224 216 209 217 230 242 255 264 269 271 280 280 269 272 270 248 271 280 271 261 248 238 241 233 225 233 230 221 221 215 218 216 200 192 190 182 154 155 164 161 166 169 169 171 175 179 179 178 182 184 185 186 189 191 191 190 191 193 194 195 196 199 199 199 200 200 202 207 213 216 216 217 218 219 219 220 221 223 227 229
241 239 230 224 208 207 232 231 217 227 236 231 237 252 262 264 269 275 270 276 288 279 257 272 280 267 256 247 247 237 223 226 223 217 217 210 208 207 201 196 187 176 164 167 170 167 168 166 169 174 178 180 179 179 183 185 186 189 191 193 191 190 191 193 194 196 198 200 201 202 204 204 205 210 215 217 219 219 220 220 219 220 222 226 231 234
234 230 208 203 192 196 218 225 212 219 246 231 229 239 248 257 253 253 272 292 310 300 240 245 279 269 237 238 250 241 212 220 220 215 220 221 216 209 205 200 188 177 172 172 171 171 169 168 175 179 178 178 180 184 185 187 189 191 192 193 191 190 191 193 195 197 199 198 199 200 201 203 205 210 213 215 219 221 222 221 220 220 222 229 236 238
242 225 163 175 192 194 202 221 208 190 229 248 229 230 235 249 253 251 264 293 324 305 232 183 259 268 238 229 242 223 172 216 217 215 217 216 221 217 212 206 189 178 177 176 173 172 173 174 176 176 177 180 184 189 189 190 191 191 193 193 192 191 191 193 196 198 198 196 196 194 193 193 196 203 209 211 215 218 220 222 222 221 224 231 237 240
244 194 174 203 215 204 205 226 208 176 202 252 218 223 230 236 243 248 252 263 285 268 282 330 247 272 289 240 234 194 179 213 212 217 215 203 213 213 210 207 190 180 177 178 177 173 174 173 172 175 180 185 189 191 190 191 192 192 194 193 192 191 190 193 196 197 197 196 195 195 195 195 197 205 211 213 217 220 221 223 224 225 227 232 236 239
175 183 197 214 221 216 215 230 204 169 191 239 216 228 237 232 231 238 237 227 249 275 296 295 210 229 276 254 233 179 178 211 210 216 215 199 205 208 210 205 192 185 175 175 178 177 178 176 176 180 185 191 191 190 189 190 192 193 194 194 193 192 191 193 196 197 198 198 196 196 199 202 205 210 214 217 219 223 225 225 226 226 229 233 236 237
146 191 205 202 221 226 219 231 205 174 193 239 234 236 241 235 229 229 220 223 251 273 287 277 187 208 263 269 253 160 176 208 209 210 208 200 200 202 214 207 195 192 178 174 178 179 182 180 184 187 190 193 190 187 189 191 192 192 193 193 192 192 191 193 196 197 200 201 199 200 202 206 209 211 214 217 219 223 226 227 226 226 227 231 234 236
200 197 175 160 206 239 236 237 208 184 205 235 241 243 251 251 236 221 194 221 259 248 259 259 198 222 276 273 249 163 183 208 205 205 195 197 201 197 208 206 198 196 180 180 181 181 184 186 189 190 189 189 188 188 190 190 190 190 191 192 192 193 192 193 196 197 200 202 203 204 206 208 208 209 211 213 216 220 223 224 224 224 224 227 231 235
260 226 143 159 195 219 234 236 206 192 208 235 264 257 262 261 243 188 126 93 289 254 252 246 211 220 279 272 231 194 206 194 175 182 176 189 207 202 202 199 196 193 181 183 183 184 190 187 184 182 181 183 184 186 187 188 190 189 190 191 192 192 192 192 195 197 201 203 205 208 209 210 209 207 206 206 209 213 216 218 219 220 221 224 228 234
262 240 207 194 194 201 225 246 229 204 202 212 249 253 260 261 79 69 93 124 237 246 251 231 202 208 249 267 254 239 242 184 156 168 170 178 202 206 203 198 194 190 182 180 180 185 185 171 167 170 175 176 177 182 186 188 189 189 190 191 191 192 191 192 194 196 200 202 206 209 210 211 210 208 206 205 206 207 210 212 214 216 218 221 226 232
258 231 230 220 199 195 206 240 241 222 195 183 208 239 243 218 120 168 182 184 227 244 258 222 185 206 242 252 256 261 264 224 176 174 168 169 186 200 207 203 192 185 183 181 179 181 176 167 169 172 171 171 175 182 186 188 188 189 190 190 190 191 190 191 193 196 199 202 206 209 210 211 211 211 211 209 207 207 209 211 212 214 216 220 225 231
300 275 241 213 207 192 189 200 205 196 183 182 190 194 204 197 175 194 197 210 232 239 251 226 184 234 272 259 238 237 246 229 194 184 172 167 174 186 199 204 194 186 188 186 181 179 176 178 179 174 171 174 180 184 185 186 187 188 190 190 190 190 189 191 193 196 199 203 207 210 211 211 212 213 214 213 210 208 210 212 214 217 219 223 228 233
290 309 248 174 184 188 194 202 202 192 188 203 192 165 194 218 199 188 172 196 226 230 233 192 171 197 211 251 227 213 228 222 189 185 174 167 174 179 187 195 193 193 193 190 185 182 182 183 179 173 175 179 181 183 183 186 188 189 190 190 189 189 189 190 193 195 199 203 208 211 211 212 213 215 215 214 214 212 213 215 217 221 224 228 234 239
214 275 260 236 233 196 204 209 197 195 237 232 172 150 192 207 178 120 197 236 227 172 139 148 209 221 204 262 260 205 219 224 195 181 166 167 176 175 183 191 191 194 196 191 187 188 188 184 178 175 179 181 182 182 184 186 188 190 191 190 190 189 188 190 192 195 199 203 207 210 211 212 212 213 213 213 214 216 218 221 223 225 229 233 239 242
185 277 276 289 286 209 203 207 177 179 217 235 169 167 138 87 67 37 263 266 212 136 204 165 222 263 307 298 299 88 169 227 217 188 177 178 172 169 184 191 188 191 191 190 189 189 186 181 180 180 180 181 181 182 186 189 190 192 191 189 189 189 189 191 193 195 199 202 206 209 211 212 211 211 212 213 215 219 222 226 228 231 234 238 242 245
167 289 273 283 309 258 204 188 203 204 190 156 199 185 109 62 37 12 289 308 60 140 245 223 183 226 93 289 328 29 29 275 270 234 212 196 168 168 185 185 184 188 188 190 189 186 184 180 179 180 181 184 184 185 189 192 193 193 191 189 187 188 189 191 193 195 199 202 205 208 210 211 211 212 214 217 220 222 224 226 228 232 235 239 244 247
137 318 285 230 261 288 310 110 228 239 201 198 239 189 150 77 172 206 243 285 92 146 252 346 182 208 183 234 334 360 335 314 315 302 272 229 187 181 189 180 179 187 188 187 183 179 181 181 179 179 183 186 187 189 191 192 192 191 190 189 187 188 190 192 194 196 200 202 204 207 210 211 212 214 216 219 221 223 225 228 231 234 235 241 246 245
139 302 292 277 260 294 335 70 172 267 207 208 260 195 158 96 150 197 216 191 121 136 215 14 151 231 245 251 314 321 307 316 316 307 295 263 226 205 198 185 178 183 184 180 175 178 180 180 182 182 183 185 186 188 189 188 188 187 186 186 186 188 190 192 195 197 200 203 205 208 209 210 212 214 217 220 221 224 227 231 234 236 238 244 243 237
131 172 264 297 321 18 321 181 189 272 203 173 231 194 171 148 267 271 268 208 119 121 164 140 144 239 268 249 281 303 309 312 300 288 281 267 250 230 215 197 184 183 182 176 174 179 180 177 181 184 183 183 182 183 184 184 183 182 181 182 185 188 190 193 196 199 201 203 206 208 208 209 211 214 218 220 222 226 229 233 236 237 242 245 241 240
149 172 211 296 336 329 245 222 199 274 292 147 185 198 174 169 232 268 275 312 33 113 169 122 125 265 270 242 270 291 305 308 296 281 273 262 246 239 228 208 194 186 181 180 179 178 177 175 176 178 176 174 173 176 179 179 178 177 179 182 185 188 191 194 196 199 202 204 205 207 207 208 211 214 217 219 221 225 229 234 236 238 243 243 241 250
154 132 190 266 274 262 277 288 250 252 265 314 261 220 125 123 181 161 180 321 338 321 208 105 91 261 251 272 304 286 291 299 288 283 290 277 245 233 227 217 206 194 184 181 180 176 173 172 170 169 168 169 173 175 175 175 175 178 180 182 185 189 193 195 197 200 202 204 204 205 205 207 210 213 215 217 220 224 230 235 237 240 243 240 243 251
156 126 319 295 288 309 324 333 303 252 195 30 297 300 92 124 142 148 210 262 306 313 12 72 32 267 260 306 328 293 282 292 286 299 312 302 269 239 226 216 208 201 189 180 178 172 164 162 162 164 167 170 172 173 174 174 174 177 180 183 186 191 193 195 197 199 201 203 202 202 203 205 208 211 213 216 219 224 231 236 237 241 241 237 247 254
228 168 81 14 14 4 347 348 353 346 73 82 278 287 114 114 61 341 266 314 333 276 18 96 180 259 258 284 305 296 303 334 342 335 329 315 301 268 237 218 200 189 180 173 168 159 153 157 161 166 171 172 173 174 174 173 174 177 181 185 188 191 193 195 197 198 200 200 199 199 200 203 207 210 212 215 220 225 231 235 238 241 240 240 248 253
211 165 110 115 123 107 291 232 143 341 27 206 269 266 148 94 47 336 298 46 10 281 326 121 204 265 281 297 317 332 354 1 355 353 346 332 320 290 244 210 189 174 170 170 163 157 160 164 168 171 172 173 174 174 173 173 174 178 183 186 189 190 191 193 195 197 197 197 196 196 198 202 206 209 212 216 220 225 230 234 238 240 241 246 246 244
102 93 169 162 160 164 195 220 223 225 116 216 282 289 114 93 57 82 54 50 212 296 327 221 210 298 320 342 349 348 358 360 352 352 348 338 329 306 248 182 170 168 170 169 163 161 165 169 172 172 172 175 175 174 173 173 174 178 182 186 188 189 189 190 192 193 194 194 194 195 197 201 207 210 213 217 221 226 229 232 236 237 242 249 245 235
101 355 220 188 204 204 207 236 247 229 149 209 272 308 103 94 354 77 148 242 210 50 318 274 206 333 315 344 350 340 344 351 352 353 345 334 322 301 219 155 149 155 166 168 165 166 167 170 173 172 172 172 169 168 169 171 175 180 183 183 183 185 185 186 188 189 189 190 190 193 198 203 207 210 212 216 219 223 225 229 233 235 243 251 246 234
109 285 209 185 238 242 231 246 245 220 209 213 262 298 89 49 322 308 239 248 216 155 262 286 338 295 288 337 342 328 328 339 353 357 349 342 334 313 158 144 144 151 161 169 171 171 170 171 172 170 169 164 160 160 162 167 173 177 178 178 178 180 182 183 183 183 184 185 187 193 200 204 207 208 210 213 216 218 220 225 229 230 240 251 248 237
107 284 204 173 284 244 234 247 233 217 231 164 265 310 54 37 297 286 272 287 267 217 248 312 337 289 263 317 329 318 316 333 4 5 1 5 359 1 129 144 150 155 162 171 175 175 173 171 168 165 161 158 158 161 162 166 171 172 173 173 174 178 180 180 180 179 180 182 186 194 200 203 206 207 209 212 213 215 216 217 221 221 230 245 246 230
27 350 357 40 48 231 251 264 225 218 237 73 45 22 49 31 313 320 353 337 334 314 317 346 353 304 283 319 330 323 325 355 14 6 3 13 10 13 69 120 138 147 152 158 165 166 159 153 151 156 161 163 165 166 166 167 168 167 168 170 172 175 176 176 176 176 178 180 185 193 199 203 206 207 209 212 212 213 212 210 213 210 214 231 233 203
342 344 358 43 79 97 307 333 309 211 210 55 12 15 24 19 347 356 344 334 356 343 336 354 7 329 320 332 336 333 347 9 11 359 357 8 14 23 38 64 101 125 134 138 146 148 142 142 145 150 154 151 154 159 160 160 160 163 166 167 169 170 170 173 174 173 176 180 186 193 199 204 207 207 210 211 211 210 207 206 204 197 196 209 209 191
108 70 2 25 80 169 311 339 20 80 80 46 305 359 7 351 347 330 301 328 6 10 347 352 342 310 316 331 340 340 351 5 3 351 353 359 7 23 36 47 74 104 117 122 128 126 123 124 124 123 118 118 129 139 145 148 149 153 158 160 161 163 165 167 169 170 174 180 187 194 201 207 208 209 211 211 209 207 204 201 196 189 189 194 191 185
261 181 68 41 108 248 303 332 38 56 54 245 251 246 228 260 271 267 274 349 18 15 327 314 307 309 322 332 339 337 336 343 348 349 356 360 3 19 34 45 63 87 101 109 116 116 114 112 109 114 119 122 128 133 139 142 139 137 144 148 151 156 159 162 165 169 174 181 190 198 204 206 206 207 208 205 203 204 202 196 191 186 185 182 177 177
241 199 69 57 114 252 320 21 57 39 254 253 287 285 235 232 221 226 272 319 17 11 1 352 335 331 335 331 332 333 320 321 349 6 6 6 4 7 23 44 66 81 90 97 103 106 109 112 111 112 118 124 131 135 139 142 141 140 143 146 150 156 161 163 166 171 178 187 194 198 201 203 205 206 204 197 196 199 196 190 186 182 179 177 177 180
167 126 112 57 127 120 17 54 88 240 264 304 327 321 295 294 130 148 272 279 352 10 10 360 341 335 335 332 335 325 302 313 9 19 11 9 5 360 5 22 54 89 105 108 110 111 109 108 108 108 113 120 126 130 134 138 140 141 146 154 161 166 168 170 173 178 183 188 192 196 199 201 202 203 201 196 194 193 189 185 183 179 179 179 180 181
148 125 148 360 45 123 90 48 350 335 334 327 329 337 330 313 239 154 162 243 328 14 7 344 341 341 335 340 345 315 298 10 22 4 1 7 1 353 360 12 23 59 92 102 112 120 121 122 121 122 125 128 131 135 138 142 146 150 156 164 167 167 170 174 178 182 185 187 192 196 199 199 198 197 198 198 194 188 185 185 182 180 181 179 174 173
134 136 162 60 30 87 90 54 12 25 356 275 275 292 281 257 246 196 100 360 334 3 1 340 351 349 341 355 347 315 2 38 15 334 348 360 355 351 0 14 22 29 40 64 99 115 123 130 132 135 139 142 145 150 153 156 160 163 166 169 168 168 172 176 180 183 185 190 195 196 196 196 196 198 199 197 191 184 183 185 184 181 181 176 169 166
71 58 103 84 31 40 81 90 93 86 248 254 272 284 287 290 290 38 55 358 322 343 349 341 350 352 355 4 348 357 58 50 339 316 344 345 342 352 5 17 24 26 33 52 80 100 113 124 130 135 141 145 150 157 160 162 164 166 170 173 171 169 171 176 182 186 191 195 196 195 195 195 197 201 198 190 185 182 183 185 183 178 173 167 162 165
37 15 41 68 61 72 85 74 224 205 236 240 254 278 299 343 44 53 46 315 304 337 341 332 341 353 360 358 358 46 73 82 267 315 333 320 331 358 11 21 21 15 29 50 73 95 108 118 124 129 139 150 156 160 162 161 161 163 169 175 174 170 172 182 190 193 194 195 193 192 192 192 195 194 188 181 179 179 180 180 176 170 164 159 162 173
45 9 30 96 97 74 87 77 306 267 273 276 279 293 309 349 60 69 107 244 287 331 328 320 332 349 358 359 15 52 60 272 270 325 317 316 349 8 15 31 38 37 48 66 81 92 100 104 108 112 127 152 160 161 163 161 160 161 166 174 181 182 184 188 191 191 190 190 190 189 188 188 190 187 180 176 175 172 174 176 172 167 162 163 170 174
61 20 21 68 67 63 98 116 360 293 258 287 309 310 315 36 81 139 218 243 298 318 314 321 333 340 358 14 32 47 22 328 347 358 339 340 356 17 30 38 44 45 56 74 85 89 89 85 87 91 98 128 155 165 168 163 158 159 163 174 191 197 192 189 186 185 186 187 188 187 184 183 186 185 181 178 175 171 172 175 174 172 171 172 173 168
28 41 15 21 96 71 47 39 47 224 256 312 329 327 346 82 170 219 235 290 310 303 310 333 345 345 3 26 37 41 39 25 13 359 344 344 358 37 46 46 49 49 54 65 77 86 88 82 78 79 82 98 121 143 160 153 141 148 159 171 189 197 194 190 188 186 185 184 185 183 180 179 181 182 181 179 175 173 173 173 175 177 177 176 171 165
358 45 86 213 188 81 47 22 263 257 280 305 324 316 313 323 263 238 238 273 294 306 315 343 2 357 7 38 54 55 51 37 18 5 2 10 23 39 46 49 52 54 56 59 69 83 88 84 78 74 74 82 94 106 133 142 137 142 153 163 177 186 189 190 189 186 183 183 183 181 178 176 177 180 180 177 175 175 174 175 177 177 178 176 172 168
359 355 120 142 149 99 105 267 273 281 292 305 327 320 334 359 359 353 355 343 330 329 323 349 5 359 7 41 68 67 56 42 31 26 24 23 25 34 46 49 49 55 60 60 63 73 81 82 80 74 70 74 83 90 105 130 140 135 126 138 163 176 182 186 187 186 182 180 179 176 174 173 175 178 177 174 175 174 173 176 176 174 175 177 174 173
336 342 24 120 199 237 286 324 327 342 356 14 39 30 21 25 13 4 18 18 351 342 347 358 3 1 18 57 71 60 51 53 49 39 35 35 28 28 40 47 48 53 58 58 59 64 69 72 72 71 68 70 78 88 96 112 125 120 113 131 154 167 176 182 185 184 178 175 174 173 171 168 170 173 174 175 178 175 175 178 177 173 175 177 177 179
341 358 22 53 24 45 4 340 347 17 25 18 27 35 30 22 10 9 20 2 340 13 25 16 11 10 22 70 83 70 55 57 58 49 46 48 39 28 34 46 49 50 51 55 61 63 64 63 63 63 63 63 69 81 89 97 106 111 123 140 145 150 162 164 159 146 135 143 155 161 163 164 165 169 172 177 180 179 178 180 179 174 174 176 178 183
330 357 20 20 14 34 355 337 345 27 37 23 15 24 27 19 13 15 11 351 7 59 56 42 34 23 12 34 74 80 71 61 62 60 54 54 49 38 37 46 51 52 53 56 61 64 63 60 59 60 59 58 64 73 79 85 92 105 122 132 133 138 135 118 105 101 103 106 113 130 150 159 163 166 167 169 171 170 170 178 183 180 179 181 185 189
309 352 2 3 17 21 356 354 351 8 30 18 8 13 16 8 17 24 14 4 14 41 54 53 48 42 25 8 27 75 77 64 63 69 66 59 56 48 41 48 54 55 56 59 62 64 63 61 60 60 56 55 61 66 68 71 77 87 101 112 124 133 124 113 112 120 125 129 134 144 155 159 162 165 163 157 150 144 143 157 173 176 174 179 189 198
1 18 356 1 50 33 344 348 350 5 28 1 355 13 14 1 19 33 19 2 3 18 35 50 55 54 43 20 16 61 78 72 68 74 71 64 58 50 42 49 55 52 51 58 63 63 62 63 62 60 56 53 58 61 61 62 67 74 83 93 105 112 112 115 116 114 115 123 134 147 157 159 159 159 157 154 147 137 128 129 141 156 164 175 190 205
31 27 3 22 61 17 325 329 335 8 48 356 354 15 14 4 27 39 19 351 360 17 23 33 56 63 54 34 29 42 65 77 77 77 75 69 67 63 52 51 58 56 50 55 61 60 58 60 61 59 55 53 56 58 57 57 60 66 74 83 90 94 99 105 103 100 105 117 125 138 151 154 154 151 147 148 148 142 134 126 119 125 147 171 191 207